Date String (YYYY-MM-DD hh:mm:ss) UTC,Instrument flags,Ambient pressure (hPa),Sample flow (lpm),Bypass flow (lpm),Sample temperature (°C),Ambient temperature (°C),ASC tube jacket temperature (°C),LED temperature (°C),Box temperature (°C),Sample RH (%),Span deviation,Mass concentration (μg/m³),Mass concentration (μg/m³),Mass concentration (μg/m³)
DateTimeUTC,F1_M11,P_M11,Q1_M11,Q2_M11,T1_M11,T2_M11,T3_M11,T4_M11,T5_M11,U1_M11,ZSPAN_M11,X0_M11,X2_M11,X1_M11
2022-05-07 10:00:00,,0818.7,5.00,0.00,29.7,28.7,00.0,38.8,31.4,10.2,0000.0,0009.35,0003.79,0002.23
2022-05-07 10:01:00,,0818.6,4.99,0.00,29.7,28.6,00.0,38.8,31.4,10.1,0000.0,0009.50,0003.74,0002.21
2022-05-07 10:02:00,,0818.5,5.00,0.00,29.7,28.7,00.0,38.7,31.4,09.9,0000.0,0009.70,0003.69,0002.18
2022-05-07 10:03:00,,0818.5,5.00,0.00,29.7,28.7,00.0,38.7,31.4,09.9,0000.0,0010.30,0003.70,0002.16
2022-05-07 10:04:00,,0818.5,5.01,0.00,29.7,28.7,00.0,38.8,31.5,09.9,0000.0,0011.30,0003.74,0002.16
2022-05-07 10:05:00,,0818.5,4.99,0.00,29.7,28.7,00.0,38.7,31.4,10.6,0000.0,0011.37,0003.71,0002.16
2022-05-07 10:06:00,,0818.5,5.01,0.00,29.7,28.7,00.0,38.7,31.4,10.7,0000.0,0011.48,0003.78,0002.17
2022-05-07 10:07:00,,0818.5,5.01,0.00,29.7,28.7,00.0,38.7,31.4,10.4,0000.0,0011.09,0003.79,0002.16
2022-05-07 10:08:00,,0818.5,5.00,0.00,29.7,28.7,00.0,38.7,31.4,10.8,0000.0,0011.20,0003.78,0002.17
2022-05-07 10:09:00,,0818.5,4.99,0.00,29.7,28.7,00.0,38.7,31.5,10.5,0000.0,0011.19,0003.78,0002.18
2022-05-07 10:10:00,,0818.5,5.00,0.00,29.7,28.7,00.0,38.7,31.4,10.4,0000.0,0011.29,0003.76,0002.18
2022-05-07 10:11:00,,0818.5,5.00,0.00,29.7,28.7,00.0,38.7,31.4,10.3,0000.0,0011.24,0003.74,0002.18
2022-05-07 10:12:00,,0818.5,5.00,0.00,29.7,28.7,00.0,38.7,31.4,10.2,0000.0,0010.62,0003.72,0002.18
2022-05-07 10:13:00,,0818.5,5.00,0.00,29.7,28.7,00.0,38.7,31.4,10.2,0000.0,0010.42,0003.71,0002.18
2022-05-07 10:14:00,,0818.5,5.01,0.00,29.7,28.6,00.0,38.7,31.4,10.2,0000.0,0010.40,0003.70,0002.17
2022-05-07 10:15:00,,0818.5,4.99,0.00,29.7,28.6,00.0,38.7,31.4,10.3,0000.0,0009.48,0003.67,0002.16
2022-05-07 10:16:00,,0818.5,4.99,0.00,29.7,28.6,00.0,38.7,31.4,10.7,0000.0,0009.47,0003.69,0002.14
2022-05-07 10:17:00,,0818.5,5.00,0.00,29.7,28.6,00.0,38.7,31.4,10.7,0000.0,0009.68,0003.65,0002.12
2022-05-07 10:18:00,,0818.5,5.00,0.00,29.7,28.6,00.0,38.7,31.4,10.6,0000.0,0009.76,0003.69,0002.14
2022-05-07 10:19:00,,0818.5,5.01,0.00,29.7,28.7,00.0,38.7,31.4,10.4,0000.0,0009.54,0003.68,0002.14
2022-05-07 10:20:00,,0818.4,5.01,0.00,29.7,28.7,00.0,38.7,31.4,10.3,0000.0,0009.82,0003.70,0002.13
2022-05-07 10:21:00,,0818.4,5.01,0.00,29.7,28.6,00.0,38.7,31.3,10.3,0000.0,0009.85,0003.67,0002.10
2022-05-07 10:22:00,,0818.4,4.99,0.00,29.7,28.6,00.0,38.7,31.4,10.3,0000.0,0010.00,0003.67,0002.09
2022-05-07 10:23:00,,0818.4,5.00,0.00,29.7,28.6,00.0,38.7,31.4,10.3,0000.0,0010.27,0003.69,0002.08
2022-05-07 10:24:00,,0818.4,5.00,0.00,29.7,28.6,00.0,38.7,31.4,10.4,0000.0,0011.10,0003.72,0002.10
2022-05-07 10:25:00,,0818.4,5.00,0.00,29.7,28.6,00.0,38.7,31.3,10.3,0000.0,0010.54,0003.69,0002.10
2022-05-07 10:26:00,,0818.4,5.01,0.00,29.7,28.6,00.0,38.7,31.4,10.3,0000.0,0010.52,0003.69,0002.09
2022-05-07 10:27:00,,0818.4,5.01,0.00,29.7,28.6,00.0,38.7,31.4,10.2,0000.0,0010.60,0003.68,0002.08
2022-05-07 10:28:00,,0818.4,5.01,0.00,29.6,28.6,00.0,38.7,31.4,10.2,0000.0,0010.46,0003.73,0002.09
2022-05-07 10:29:00,,0818.3,4.99,0.00,29.6,28.6,00.0,38.7,31.4,10.2,0000.0,0010.21,0003.66,0002.07
2022-05-07 10:30:00,,0818.3,5.00,0.00,29.6,28.6,00.0,38.7,31.3,10.1,0000.0,0010.68,0003.69,0002.07
2022-05-07 10:31:00,,0818.3,4.99,0.00,29.6,28.5,00.0,38.7,31.3,10.1,0000.0,0011.00,0003.66,0002.07
2022-05-07 10:32:00,,0818.3,5.01,0.00,29.6,28.6,00.0,38.7,31.4,10.1,0000.0,0010.90,0003.70,0002.08
2022-05-07 10:33:00,,0818.3,5.01,0.00,29.6,28.6,00.0,38.6,31.4,10.1,0000.0,0011.05,0003.73,0002.08
2022-05-07 10:34:00,,0818.3,5.00,0.00,29.6,28.5,00.0,38.6,31.3,10.1,0000.0,0011.20,0003.74,0002.08
2022-05-07 10:35:00,,0818.2,5.00,0.00,29.6,28.5,00.0,38.6,31.2,10.1,0000.0,0010.42,0003.74,0002.06
2022-05-07 10:36:00,,0818.2,4.99,0.00,29.6,28.5,00.0,38.6,31.3,10.1,0000.0,0010.84,0003.78,0002.05
2022-05-07 10:37:00,,0818.1,5.01,0.00,29.6,28.5,00.0,38.6,31.3,09.9,0000.0,0010.89,0003.80,0002.06
2022-05-07 10:38:00,,0818.1,4.99,0.00,29.6,28.5,00.0,38.6,31.3,10.0,0000.0,0011.22,0003.80,0002.07
2022-05-07 10:39:00,,0818.1,5.00,0.00,29.6,28.5,00.0,38.6,31.2,10.0,0000.0,0011.24,0003.77,0002.06
2022-05-07 10:40:00,,0818.1,5.00,0.00,29.6,28.5,00.0,38.6,31.3,10.1,0000.0,0011.20,0003.81,0002.07
2022-05-07 10:41:00,,0818.1,5.00,0.00,29.6,28.5,00.0,38.6,31.3,10.1,0000.0,0010.98,0003.83,0002.07
2022-05-07 10:42:00,,0818.1,5.00,0.00,29.6,28.5,00.0,38.6,31.3,10.1,0000.0,0010.55,0003.85,0002.08
2022-05-07 10:43:00,,0818.1,5.02,0.00,29.6,28.5,00.0,38.6,31.3,10.1,0000.0,0010.66,0003.86,0002.07
2022-05-07 10:44:00,,0818.1,4.99,0.00,29.5,28.5,00.0,38.6,31.3,10.1,0000.0,0010.61,0003.88,0002.07
2022-05-07 10:45:00,,0818.2,5.00,0.00,29.5,28.5,00.0,38.6,31.3,10.2,0000.0,0010.31,0003.88,0002.06
2022-05-07 10:46:00,,0818.2,4.99,0.00,29.5,28.5,00.0,38.6,31.2,10.2,0000.0,0010.38,0003.90,0002.07
2022-05-07 10:47:00,,0818.1,4.99,0.00,29.5,28.4,00.0,38.6,31.2,10.2,0000.0,0010.06,0003.89,0002.06
2022-05-07 10:48:00,,0818.1,5.00,0.00,29.5,28.4,00.0,38.6,31.2,10.2,0000.0,0010.24,0003.85,0002.08
2022-05-07 10:49:00,,0818.0,5.00,0.00,29.5,28.4,00.0,38.6,31.2,10.2,0000.0,0010.04,0003.87,0002.07
2022-05-07 10:50:00,,0818.0,4.99,0.00,29.5,28.5,00.0,38.5,31.2,10.3,0000.0,0010.36,0003.79,0002.05
2022-05-07 10:51:00,,0818.0,5.00,0.00,29.5,28.4,00.0,38.5,31.2,10.3,0000.0,0010.72,0003.77,0002.02
2022-05-07 10:52:00,,0818.0,5.00,0.00,29.5,28.4,00.0,38.5,31.2,10.2,0000.0,0010.86,0003.75,0002.03
2022-05-07 10:53:00,,0818.0,5.00,0.00,29.5,28.4,00.0,38.5,31.2,10.2,0000.0,0010.73,0003.72,0002.03
2022-05-07 10:54:00,,0818.0,4.98,0.00,29.5,28.4,00.0,38.5,31.2,10.3,0000.0,0010.54,0003.72,0002.02
2022-05-07 10:55:00,,0818.0,5.00,0.00,29.5,28.4,00.0,38.5,31.2,10.3,0000.0,0010.39,0003.69,0002.02
2022-05-07 10:56:00,,0818.0,5.02,0.00,29.5,28.4,00.0,38.5,31.2,10.2,0000.0,0010.50,0003.69,0002.02
2022-05-07 10:57:00,,0818.0,5.00,0.00,29.4,28.4,00.0,38.5,31.2,10.2,0000.0,0010.69,0003.70,0002.02
2022-05-07 10:58:00,,0818.0,5.00,0.00,29.4,28.4,00.0,38.5,31.2,10.1,0000.0,0010.49,0003.68,0002.02
2022-05-07 10:59:00,,0818.0,5.00,0.00,29.4,28.4,00.0,38.5,31.1,10.0,0000.0,0010.03,0003.62,0002.01
